Location: ?????
(38.0199°N, 22.9869°E)
Time: 19:11:20
(UTC+00:00)

Daily predictions for brighter satellites

Satellite Brightness Start Highest point End
(mag) Time Altitude Azimuth Time Altitude Azimuth Time Altitude Azimuth
Landsat 7 3.8 17:04:00 10° SSE 17:08:41 82° ENE 17:13:24 10° N
ATLAS CENTAUR R/B 3.4 17:05:47 10° NNW 17:10:40 46° NE 17:18:09 10° ESE
Cosmos 2360 Rocket 2.5 17:06:57 10° SSW 17:12:36 77° WNW 17:18:15 10° NNE
Cosmos 1898 Rocket 3.8 17:12:41 10° N 17:17:50 48° ENE 17:22:53 10° SE
Cosmos 1459 Rocket 4.4 17:12:48 10° SSW 17:18:48 67° W 17:24:51 10° N
Okean O Rocket 3.7 17:18:46 10° ENE 17:19:16 10° ENE 17:19:46 10° NE
Cosmos 2322 Rocket 3.3 17:15:57 10° SW 17:21:28 51° WNW 17:27:01 10° NNE
USA 306 3.4 17:19:33 10° S 17:21:45 20° SE 17:24:17 10° ENE
Cosmos 1151 Rocket 3.5 17:19:14 10° N 17:23:13 38° ENE 17:27:10 10° SSE
Resurs 01 Rocket 3.0 17:20:08 10° ESE 17:23:23 20° ENE 17:26:38 10° NNE
ACS3 Solar Sail 3.4 17:20:23 10° E 17:24:15 17° ENE 17:28:09 10° NNE
Cosmos 1340 2.8 17:21:24 10° SSE 17:24:26 37° E 17:27:30 10° NNE
Meteor PRIRODA 3.9 17:23:37 10° SE 17:26:43 38° ENE 17:29:49 10° N
USA 186 3.5 17:25:33 12° ESE 17:27:16 16° ENE 17:29:22 10° NNE
Cosmos 2333 Rocket 3.0 17:23:34 10° SW 17:29:14 60° WNW 17:34:57 10° NNE
ATLAS 3B R/B 3.0 17:24:49 10° NNW 17:32:45 81° ENE 17:40:23 10° SE
Cosmos 2219 Rocket 2.2 17:27:51 10° SSW 17:33:30 82° ESE 17:39:13 10° NNE
Helios 1A 2.8 17:32:06 10° NNE 17:36:10 69° ESE 17:40:11 10° S
Meteor 1-5 Rocket 4.2 17:31:06 10° S 17:36:37 82° E 17:42:23 10° N
BlueWalker 3 4.5 17:37:41 10° N 17:38:25 10° NNE 17:39:09 10° NNE
SAR-Lupe-2 3.6 17:37:12 10° S 17:40:45 81° WSW 17:44:21 10° NNW
SL-08 R/B 3.5 17:36:01 10° N 17:40:57 81° WNW 17:45:51 10° SSW
USA 229 DEB 4.3 17:34:21 10° NNW 17:41:43 51° NE 17:48:31 14° ESE
USA 229 4.3 17:34:31 10° NNW 17:41:52 51° NE 17:48:36 15° ESE
Cosmos 1725 Rocket 4.5 17:39:58 10° SSW 17:46:05 64° W 17:52:13 10° N
CZ-4B R/B 3.3 17:42:17 10° SSE 17:47:00 89° ENE 17:51:47 10° NNW
Timation 2 Rocket 4.1 17:42:25 10° NNW 17:48:43 67° ENE 17:55:13 10° SSE
Cosmos 1766 Rocket 3.9 17:48:02 10° SSE 17:52:05 41° E 17:56:11 10° NNE
SJ-6B 2.6 17:48:31 10° S 17:52:11 85° WSW 17:55:50 10° NNW
Cosmos 1626 2.4 17:49:29 10° NNW 17:52:25 51° W 17:55:19 10° S
Cosmos 2322 3.6 17:48:34 10° S 17:54:08 64° ESE 17:59:43 10° NNE
Cosmos 1844 Rocket 4.0 17:50:13 10° NW 17:55:30 41° WSW 18:00:45 10° S
GEOS 3 Rocket 3.6 17:55:00 12° SSE 17:59:51 85° WSW 18:05:04 10° NW
Cosmos 1066 Rocket 4.4 17:56:32 10° N 18:02:19 56° ENE 18:07:17 14° SSE
CZ-4 R/B 1.3 18:06:30 11° S 18:10:08 75° WSW 18:13:58 10° NNW
Cosmos 1400 Rocket 2.8 18:06:24 10° N 18:10:10 52° E 18:11:19 37° SE
COSMOS 2428 2.6 18:07:26 10° SSW 18:13:06 76° ESE 18:18:49 10° NNE
CSL-04 Debris 4.2 18:10:18 19° SSE 18:14:17 64° ENE 18:19:42 10° N
Cosmos 1818 4.1 18:09:29 10° SW 18:14:51 62° WNW 18:20:18 10° NNE
Cosmos 1726 2.9 18:12:29 10° SSW 18:15:08 38° W 18:17:48 10° N
Cosmos 1707 4.0 18:12:39 10° NNE 18:14:39 22° NE 18:14:39 22° NE
Cosmos 1536 4.0 18:20:01 26° NE 18:20:01 26° NE 18:22:07 10° NNE
Cosmos 1937 Rocket 3.9 18:13:32 10° NNW 18:18:46 65° WSW 18:23:44 11° S
Cosmos 1513 Rocket 4.4 18:14:24 10° S 18:20:21 63° E 18:26:20 10° NNE
BREEZE M DEB (TANK) 4.4 18:15:01 10° SW 18:20:25 87° SE 18:42:24 10° ENE
Meteor 1-14 Rocket 4.1 18:15:03 10° S 18:20:33 70° E 18:26:04 10° NNE
Cosmos 1464 Rocket 4.2 18:18:42 14° SSE 18:23:49 50° E 18:29:55 10° NNE
PAYLOAD B 4.4 18:18:23 10° S 18:23:57 74° WSW 18:29:33 10° NNW
Lacrosse 4 Rocket 1.7 18:19:48 10° NNW 18:24:01 48° ENE 18:24:34 45° E
Cosmos 1943 Rocket 3.7 18:20:56 10° NNE 18:24:35 18° NE 18:24:57 18° ENE
USA 59 Rocket 1.4 18:21:35 10° N 18:25:09 27° NE 18:25:31 27° ENE
KORONAS-FOTON 4.0 18:22:14 10° N 18:25:28 47° ENE 18:25:28 47° ENE
Meteor 1-11 Rocket 4.1 18:27:19 38° ESE 18:28:07 40° E 18:33:18 10° NNE
Cosmos 1356 Rocket 4.2 18:24:45 10° N 18:28:04 35° ENE 18:28:04 35° ENE
Terra 3.8 18:30:28 14° NE 18:30:28 14° NE 18:31:56 10° NNE
Cosmos 1328 Rocket 3.4 18:28:20 10° N 18:32:39 89° W 18:34:05 42° S
Meteor 1-4 Rocket 4.4 18:30:43 10° N 18:31:19 15° N 18:31:19 15° N
Cosmos 1674 2.4 18:31:48 10° NNW 18:35:07 70° W 18:35:10 70° WSW
CZ-4B R/B 3.3 18:33:16 19° S 18:37:16 76° WSW 18:42:44 10° NNW
CZ-4B R/B 4.3 18:34:40 12° SSW 18:37:40 32° W 18:41:09 10° NNW
ERS-1 Rocket 4.4 18:39:39 23° NE 18:39:39 23° NE 18:42:42 10° NNE
OAO 2 Rocket 3.7 18:34:14 10° W 18:38:55 46° SSW 18:39:33 43° S
Cosmos 2278 Rocket 2.9 18:35:38 10° N 18:40:50 36° ENE 18:41:07 35° ENE
NOSS 2-1 (C) 4.4 18:37:46 10° NNW 18:41:26 37° NE 18:41:26 37° NE
Cosmos 2034 Rocket 4.2 18:41:53 45° ESE 18:42:35 47° E 18:48:27 10° NNE
CARTOSAT-1 4.3 18:40:59 23° SSW 18:43:20 49° W 18:47:28 10° NNW
SPOT 5 3.4 18:45:11 41° NE 18:45:11 41° NE 18:48:59 10° N
Cosmos 1072 Rocket 4.4 18:40:43 10° S 18:47:07 85° E 18:53:33 10° N
NOSS 0 Rocket 3.9 18:45:18 10° SSW 18:51:32 89° WNW 18:57:49 10° NNE
Okean 3 Rocket 3.6 18:51:02 51° SSW 18:52:06 78° W 18:56:35 10° N
USA 306 3.9 18:51:15 10° W 18:54:08 33° NW 18:54:08 33° NW
MOS 1-B 4.5 18:51:28 31° S 18:54:19 71° WSW 19:00:07 10° NNW
Okean O Rocket 1.7 18:54:28 67° SW 18:54:52 73° WSW 18:59:19 10° NNW
USA 215 3.1 18:51:22 10° NE 18:57:54 71° SE 19:04:25 10° SW
USA 186 4.2 18:58:07 18° WSW 18:58:50 19° W 19:01:14 10° NW
Resurs 01 Rocket 3.1 18:57:00 19° SSW 18:59:33 33° W 19:03:34 10° NNW
ATLAS CENTAUR R/B 4.2 18:55:01 10° WNW 19:00:40 41° SW 19:05:09 24° S
Aureole 3 Rocket 4.2 19:01:28 43° SSE 19:04:05 66° E 19:10:11 10° NNE
Cosmos 2237 Rocket 2.0 19:04:46 79° ESE 19:04:51 79° ESE 19:10:29 10° NNE
MOS 1 Rocket 4.1 19:06:49 43° NNE 19:06:49 43° NNE 19:10:35 10° N
ACS3 Solar Sail 1.9 19:05:10 41° S 19:07:33 76° W 19:13:58 10° NNW
Okean-O 3.3 19:12:12 49° NNW 19:12:12 49° NNW 19:15:27 10° NNW
MetOp-B 4.2 19:17:45 72° N 19:17:45 72° N 19:22:35 10° NNW
BlueWalker 3 4.1 19:13:55 10° NNW 19:15:32 21° NNW 19:15:32 21° NNW
NOSS 2-1 (E) 4.4 19:13:23 10° NNW 19:16:32 52° NNW 19:16:32 52° NNW
Cosmos 44 Rocket 4.2 19:13:25 10° NW 19:17:37 41° WSW 19:17:37 41° WSW
USA 267 4.4 19:29:00 28° NE 19:30:08 30° NNE 19:35:38 10° NNW
Cosmos 1980 4.3 19:29:57 21° SW 19:33:35 55° WNW 19:39:11 10° NNE
Cosmos 2369 Rocket 4.5 19:38:30 10° NNE 19:39:53 13° NNE 19:39:53 13° NNE
Lacrosse 4 Rocket 4.4 19:59:30 10° WNW 20:00:26 12° W 20:00:26 12° W
Terra 4.0 20:09:10 22° NNW 20:09:10 22° NNW 20:10:57 10° NNW
Cosmos 1943 Rocket 3.6 20:03:19 10° NNW 20:06:28 34° NW 20:06:28 34° NW
USA 59 Rocket 2.7 20:10:29 10° NW 20:11:54 19° WNW 20:11:54 19° WNW
Cosmos 2278 Rocket 4.1 20:19:54 10° NW 20:22:58 25° WNW 20:22:58 25° WNW
USA 215 4.5 20:34:43 10° NNE 20:40:34 36° NNW 20:46:25 10° W
